KC3ROS Weather Reports


Display with metric or nautical units.
time (UTC)temp
F
wind
direction
speed
MPH
gust
MPH
rain 1hr
in
rain 24hr
in
rain mn
in
humidity
%
barometer
mb
20260504140835 59 219 4.0 5.0 0.00 0.00 0.00 54 1008.9
20260504140331 59 230 7.0 11.0 0.00 0.00 0.00 54 1009.1
20260504130800 57 205 2.0 7.0 0.00 0.00 0.00 56 1009.5
20260504130256 56 155 0.0 15.0 0.00 0.00 0.00 56 1009.6
20260504120220 53 129 3.0 9.0 0.00 0.00 0.00 62 1009.2
20260504110647 50 196 3.0 6.0 0.00 0.00 0.00 64 1009.2
20260504110143 50 149 2.0 5.0 0.00 0.00 0.00 64 1009.3
20260504100609 50 205 3.0 12.0 0.00 0.00 0.00 61 1009.5
20260504100108 49 141 2.0 3.0 0.00 0.00 0.00 63 1009.5
20260504082003 48 212 1.0 4.0 0.00 0.00 0.00 64 1010.4
20260504081501 48 131 0.0 4.0 0.00 0.00 0.00 64 1010.5
20260504080955 48 131 1.0 4.0 0.00 0.00 0.00 64 1010.3
20260504080452 48 188 1.0 3.0 0.00 0.00 0.00 64 1010.4
20260504050259 48 159 1.0 2.0 0.00 0.00 0.00 59 1012.1
20260504045756 48 114 0.0 2.0 0.00 0.00 0.00 60 1012.1
20260504045251 48 147 0.0 2.0 0.00 0.00 0.00 59 1012.1
20260504044749 48 177 0.0 2.0 0.00 0.00 0.00 60 1012.1
20260504044246 47 117 0.0 2.0 0.00 0.00 0.00 61 1012.0
20260504043743 47 128 0.0 2.0 0.00 0.00 0.00 61 1012.1
20260504043239 47 139 1.0 3.0 0.00 0.00 0.00 61 1012.1
20260504042732 47 244 0.0 2.0 0.00 0.00 0.00 61 1012.1
20260504042228 48 164 0.0 3.0 0.00 0.00 0.00 61 1012.1
20260504041724 48 285 3.0 6.0 0.00 0.00 0.00 59 1012.3
20260504041220 48 213 4.0 5.0 0.00 0.00 0.00 59 1012.4
20260504040717 48 165 2.0 4.0 0.00 0.00 0.00 59 1012.2
20260504040214 49 228 2.0 5.0 0.00 0.00 0.00 57 1012.3
20260504035710 48 233 3.0 5.0 0.00 0.00 0.00 57 1012.2
20260504035208 48 238 2.0 6.0 0.00 0.00 0.00 58 1012.0
20260504034705 48 126 2.0 4.0 0.00 0.00 0.00 58 1012.0
20260504034202 48 98 0.0 2.0 0.00 0.00 0.00 59 1012.2
20260504033700 48 138 1.0 3.0 0.00 0.00 0.00 58 1012.1
20260504033157 48 186 1.0 2.0 0.00 0.00 0.00 58 1012.2
20260504032653 49 146 0.0 3.0 0.00 0.00 0.00 58 1012.2
20260504032151 48 93 1.0 2.0 0.00 0.00 0.00 57 1012.0
20260504031648 48 139 2.0 2.0 0.00 0.00 0.00 57 1012.1
20260504031144 49 101 1.0 2.0 0.00 0.00 0.00 58 1012.3
20260504030641 49 119 0.0 3.0 0.00 0.00 0.00 57 1012.2
20260504030138 49 148 1.0 3.0 0.00 0.00 0.00 56 1012.2
20260504025634 49 198 2.0 3.0 0.00 0.00 0.00 56 1012.3
20260504025131 49 180 3.0 6.0 0.00 0.00 0.00 55 1012.3
20260504024628 49 142 0.0 2.0 0.00 0.00 0.00 56 1012.3
20260504024125 49 145 0.0 2.0 0.00 0.00 0.00 55 1012.2
20260504023622 49 129 0.0 2.0 0.00 0.00 0.00 56 1012.4
20260504023118 50 113 1.0 2.0 0.00 0.00 0.00 55 1012.3
20260504022614 50 160 1.0 2.0 0.00 0.00 0.00 55 1012.4
20260504022110 50 177 2.0 3.0 0.00 0.00 0.00 55 1012.4
20260504021608 50 160 1.0 3.0 0.00 0.00 0.00 55 1012.4
20260504021105 50 206 1.0 3.0 0.00 0.00 0.00 54 1012.4
20260504020602 50 124 1.0 2.0 0.00 0.00 0.00 53 1012.3
20260504020058 50 153 0.0 2.0 0.00 0.00 0.00 53 1012.5
20260504015554 51 86 0.0 2.0 0.00 0.00 0.00 52 1012.5
20260504015050 51 147 0.0 3.0 0.00 0.00 0.00 51 1012.3
20260504014547 51 177 0.0 3.0 0.00 0.00 0.00 51 1012.5
20260504014044 51 198 2.0 3.0 0.00 0.00 0.00 52 1012.3
20260504013541 51 123 1.0 3.0 0.00 0.00 0.00 51 1012.4
20260504013038 51 165 0.0 3.0 0.00 0.00 0.00 51 1012.1
20260504012536 51 123 1.0 2.0 0.00 0.00 0.00 50 1012.3
20260504012033 52 89 0.0 3.0 0.00 0.00 0.00 51 1012.3
20260504011529 52 194 1.0 3.0 0.00 0.00 0.00 50 1012.3
20260504011020 52 211 1.0 3.0 0.00 0.00 0.00 51 1012.3
20260504010516 52 131 1.0 4.0 0.00 0.00 0.00 50 1012.3
20260504010012 52 158 1.0 4.0 0.00 0.00 0.00 49 1012.2
20260504005509 52 253 2.0 3.0 0.00 0.00 0.00 50 1012.3
20260504005007 52 255 2.0 2.0 0.00 0.00 0.00 50 1012.3
20260504004504 53 199 2.0 3.0 0.00 0.00 0.00 49 1012.2
20260504004001 53 188 1.0 3.0 0.00 0.00 0.00 49 1012.1
20260504003456 53 260 0.0 4.0 0.00 0.00 0.00 48 1012.3
20260504002954 53 89 0.0 7.0 0.00 0.00 0.00 48 1012.0
20260504002451 53 177 3.0 5.0 0.00 0.00 0.00 48 1012.2
20260504001948 53 185 3.0 6.0 0.00 0.00 0.00 48 1012.2
20260504001445 54 200 2.0 3.0 0.00 0.00 0.00 47 1012.2
20260504000942 54 200 1.0 5.0 0.00 0.00 0.00 47 1012.2
20260504000439 54 121 2.0 7.0 0.00 0.00 0.00 46 1012.3
20260503235937 55 202 4.0 7.0 0.00 0.00 0.00 46 1012.2
20260503235434 55 273 4.0 9.0 0.00 0.00 0.00 45 1012.1
20260503234931 55 236 4.0 7.0 0.00 0.00 0.00 45 1012.2
20260503234429 55 35 0.0 7.0 0.00 0.00 0.00 46 1012.3
20260503233927 55 102 3.0 5.0 0.00 0.00 0.00 45 1012.2
20260503233423 55 248 3.0 8.0 0.00 0.00 0.00 45 1012.1
20260503232920 55 112 1.0 9.0 0.00 0.00 0.00 45 1012.2
20260503232417 55 145 1.0 8.0 0.00 0.00 0.00 45 1012.3
20260503231915 56 265 2.0 12.0 0.00 0.00 0.00 44 1012.2
20260503231412 55 291 2.0 6.0 0.00 0.00 0.00 46 1012.4
20260503230908 56 352 2.0 5.0 0.00 0.00 0.00 45 1012.4
20260503230404 56 209 2.0 8.0 0.00 0.00 0.00 44 1012.3
20260503225902 56 183 2.0 8.0 0.00 0.00 0.00 45 1012.3
20260503225358 57 97 3.0 5.0 0.00 0.00 0.00 44 1012.3
20260503224854 57 180 3.0 7.0 0.00 0.00 0.00 45 1012.4
20260503224351 57 214 2.0 10.0 0.00 0.00 0.00 45 1012.2
20260503223849 57 228 3.0 9.0 0.00 0.00 0.00 43 1012.4
20260503223347 57 147 3.0 12.0 0.00 0.00 0.00 42 1012.5
20260503222842 57 129 4.0 9.0 0.00 0.00 0.00 42 1012.5
20260503222341 58 293 2.0 7.0 0.00 0.00 0.00 45 1012.3
20260503221838 57 268 8.0 12.0 0.00 0.00 0.00 40 1012.4
20260503221337 57 84 2.0 12.0 0.00 0.00 0.00 43 1012.3
20260503220833 57 172 2.0 13.0 0.00 0.00 0.00 43 1012.3
20260503220330 57 225 5.0 13.0 0.00 0.00 0.00 42 1012.4
20260503215827 58 212 2.0 11.0 0.00 0.00 0.00 40 1012.2
20260503215324 59 175 4.0 14.0 0.00 0.00 0.00 38 1012.3
20260503214822 59 198 6.0 9.0 0.00 0.00 0.00 38 1012.4
20260503214318 57 177 2.0 7.0 0.00 0.00 0.00 43 1012.5
20260503213815 57 155 5.0 12.0 0.00 0.00 0.00 40 1012.3
20260503213313 59 283 4.0 9.0 0.00 0.00 0.00 38 1012.3
20260503212809 60 173 2.0 14.0 0.00 0.00 0.00 37 1012.1
20260503212308 61 183 3.0 7.0 0.00 0.00 0.00 40 1012.2
20260503211805 59 223 3.0 4.0 0.00 0.00 0.00 37 1012.1
20260503211302 59 86 2.0 5.0 0.00 0.00 0.00 41 1012.2
20260503210802 60 244 4.0 6.0 0.00 0.00 0.00 43 1012.3
20260503210300 57 272 3.0 9.0 0.00 0.00 0.00 43 1012.4
20260503205754 57 320 4.0 9.0 0.00 0.00 0.00 39 1012.3
20260503205251 59 268 6.0 16.0 0.00 0.00 0.00 40 1012.2
20260503204748 57 219 2.0 6.0 0.00 0.00 0.00 41 1012.5
20260503204246 58 272 3.0 9.0 0.00 0.00 0.00 43 1012.6
20260503203743 59 192 4.0 17.0 0.00 0.00 0.00 39 1012.5
20260503203240 57 337 1.0 6.0 0.00 0.00 0.00 43 1012.5
20260503202737 57 217 3.0 8.0 0.00 0.00 0.00 41 1012.7
20260503202235 57 214 3.0 7.0 0.00 0.00 0.00 44 1012.7
20260503201732 57 172 3.0 11.0 0.00 0.00 0.00 40 1012.7
20260503201230 59 200 6.0 14.0 0.00 0.00 0.00 39 1012.9
20260503200726 59 209 4.0 8.0 0.00 0.00 0.00 37 1012.9
20260503200223 56 207 5.0 11.0 0.00 0.00 0.00 40 1013.0
20260503195719 58 268 5.0 11.0 0.00 0.00 0.00 43 1012.9
20260503195216 58 219 3.0 9.0 0.00 0.00 0.00 41 1013.3
20260503194714 61 250 5.0 11.0 0.00 0.00 0.00 37 1013.1
20260503194210 60 357 2.0 6.0 0.00 0.00 0.00 40 1013.2
20260503193706 57 111 2.0 8.0 0.00 0.00 0.00 41 1013.3
20260503193202 58 207 4.0 19.0 0.00 0.00 0.00 39 1013.3
20260503192657 60 172 2.0 9.0 0.00 0.00 0.00 42 1013.5
20260503192153 57 310 3.0 17.0 0.00 0.00 0.00 41 1013.5
20260503191650 57 246 4.0 14.0 0.00 0.00 0.00 41 1013.7
20260503191147 57 181 6.0 10.0 0.00 0.00 0.00 41 1013.8
20260503190644 58 267 5.0 8.0 0.00 0.00 0.00 41 1013.8
20260503190141 57 252 4.0 8.0 0.00 0.00 0.00 43 1013.8
20260503185637 59 165 2.0 13.0 0.00 0.00 0.00 39 1013.8
20260503185133 58 309 3.0 6.0 0.00 0.00 0.00 40 1013.7
20260503184628 56 244 5.0 15.0 0.00 0.00 0.00 43 1014.0
20260503184125 55 246 14.0 14.0 0.00 0.00 0.00 45 1014.3
20260503183621 55 311 4.0 9.0 0.00 0.00 0.00 49 1013.8
20260503183119 55 63 4.0 7.0 0.00 0.00 0.00 45 1014.3
20260503182617 58 238 4.0 8.0 0.00 0.00 0.00 43 1014.0
20260503182115 57 207 3.0 11.0 0.00 0.00 0.00 40 1014.4
20260503181611 57 229 4.0 6.0 0.00 0.00 0.00 45 1014.3
20260503181108 57 183 3.0 9.0 0.00 0.00 0.00 40 1014.4
20260503180605 56 262 8.0 16.0 0.00 0.00 0.00 41 1014.2
20260503180103 58 263 8.0 16.0 0.00 0.00 0.00 41 1014.3
20260503175600 56 264 3.0 8.0 0.00 0.00 0.00 40 1014.5
20260503175057 55 297 3.0 8.0 0.00 0.00 0.00 48 1014.6
20260503174553 54 200 2.0 6.0 0.00 0.00 0.00 47 1014.7
20260503174050 56 230 6.0 8.0 0.00 0.00 0.00 41 1014.8
20260503173545 54 267 3.0 9.0 0.00 0.00 0.00 45 1014.8
20260503173042 55 155 6.0 11.0 0.00 0.00 0.00 44 1014.8
20260503172539 56 223 4.0 14.0 0.00 0.00 0.00 45 1014.8
20260503172036 55 124 0.0 5.0 0.00 0.00 0.00 46 1014.8
20260503171533 54 177 3.0 11.0 0.00 0.00 0.00 45 1015.1
20260503171030 56 222 5.0 10.0 0.00 0.00 0.00 49 1015.0
20260503170526 53 243 5.0 6.0 0.00 0.00 0.00 49 1014.8
20260503150913 49 211 8.0 10.0 0.00 0.00 0.00 47 1015.8
20260503150409 50 196 3.0 15.0 0.00 0.00 0.00 45 1015.8